This is the latest recevied weather packets stored in our database for station/object S59MA-6. If no packets are shown the sender has not sent any weather packets the latest 10 day(s).
| Time | Temp. | Humidity | Pressure | Rain* | Wind** | Luminosity | Snow |
|---|---|---|---|---|---|---|---|
| 1778415016 | 23.33° C | 55% | 1001.3 hPa | 253.75 mm | - | - | - |
| 1778414715 | 23.33° C | 54% | 1001.4 hPa | 253.75 mm | - | - | - |
| 1778414415 | 22.78° C | 55% | 1001.3 hPa | 0 mm | - | - | - |
| 1778414115 | 22.78° C | 57% | 1001.3 hPa | 0 mm | - | - | - |
| 1778413816 | 22.22° C | 57% | 1001.3 hPa | 0 mm | - | - | - |
| 1778413516 | 22.22° C | 55% | 1001.4 hPa | 0 mm | - | - | - |
| 1778413216 | 22.22° C | 55% | 1001.5 hPa | 0 mm | - | - | - |
| 1778412917 | 22.78° C | 56% | 1001.6 hPa | 0 mm | - | - | - |
| 1778412616 | 22.78° C | 56% | 1001.9 hPa | 0 mm | - | - | - |
| 1778412318 | 22.78° C | 56% | 1001.7 hPa | 0 mm | - | - | - |
| 1778411716 | 22.78° C | 57% | 1002.1 hPa | 253.75 mm | - | - | - |
| 1778411417 | 22.78° C | 58% | 1002 hPa | 253.75 mm | - | - | - |
| 1778411116 | 22.78° C | 58% | 1002.3 hPa | 253.75 mm | - | - | - |
| 1778410517 | 22.22° C | 57% | 1002.5 hPa | 253.75 mm | - | - | - |
| 1778410216 | 22.78° C | 57% | 1002.6 hPa | 253.75 mm | - | - | - |
| 1778409916 | 22.78° C | 58% | 1002.7 hPa | 253.75 mm | - | - | - |
| 1778409618 | 22.78° C | 59% | 1002.6 hPa | 253.75 mm | - | - | - |
| 1778409316 | 22.22° C | 60% | 1002.9 hPa | 140.21 mm | - | - | - |
| 1778408716 | 22.22° C | 61% | 1001.8 hPa | 253.75 mm | - | - | - |
| 1778408117 | 21.67° C | 64% | 1002.1 hPa | 253.75 mm | - | - | - |
| 1778407819 | 21.67° C | 64% | 1002.1 hPa | 253.75 mm | - | - | - |
| 1778407219 | 20° C | 66% | 1003.1 hPa | 253.75 mm | - | - | - |
| 1778406018 | 18.89° C | 65% | 1002.3 hPa | 8.13 mm | - | - | - |
| 1778404817 | 18.89° C | 65% | 1002.7 hPa | 253.75 mm | - | - | - |
| 1778404218 | 18.89° C | 65% | 1003.8 hPa | 253.75 mm | - | - | - |
* Rain latest hour (hover to see other rain measurements)
** Current wind speed in m/s (hover to see current wind gust speed)